| time (UTC) | temp F | wind direction | speed knots | gust knots | rain 1hr in | rain 24hr in | rain mn in | humidity % | barometer mb |
| 20260505180032 | 59 | 234 | 3.5 | 4.3 | 0.00 | 0.18 | 0.18 | 87 | 1004.7 |
| 20260505175532 | 59 | 261 | 1.7 | 1.7 | 0.00 | 0.18 | 0.18 | 88 | 1004.5 |
| 20260505175029 | 58 | 290 | 2.6 | 4.3 | 0.00 | 0.18 | 0.18 | 89 | 1004.6 |
| 20260505174526 | 58 | 267 | 3.5 | 4.3 | 0.00 | 0.18 | 0.18 | 88 | 1004.7 |
| 20260505174022 | 57 | 242 | 6.1 | 8.7 | 0.00 | 0.18 | 0.18 | 88 | 1004.5 |
| 20260505173519 | 58 | 313 | 8.7 | 12.2 | 0.00 | 0.18 | 0.18 | 87 | 1004.6 |
| 20260505173016 | 58 | 312 | 6.1 | 7.8 | 0.00 | 0.18 | 0.18 | 86 | 1004.3 |
| 20260505172514 | 58 | 276 | 4.3 | 5.2 | 0.05 | 0.18 | 0.18 | 87 | 1004.5 |
| 20260505172009 | 58 | 297 | 9.6 | 11.3 | 0.12 | 0.18 | 0.18 | 86 | 1004.4 |
| 20260505171505 | 58 | 279 | 7.0 | 7.8 | 0.19 | 0.17 | 0.17 | 87 | 1004.7 |
| 20260505171002 | 58 | 261 | 6.1 | 7.8 | 0.24 | 0.16 | 0.16 | 88 | 1004.7 |
| 20260505170459 | 59 | 281 | 2.6 | 5.2 | 0.24 | 0.14 | 0.14 | 87 | 1004.9 |
| 20260505165954 | 59 | 283 | 5.2 | 6.1 | 0.07 | 0.11 | 0.11 | 86 | 1004.8 |
| 20260505165450 | 59 | 265 | 7.8 | 8.7 | 0.05 | 0.10 | 0.10 | 85 | 1004.7 |
| 20260505164946 | 60 | 300 | 10.4 | 13.9 | 0.05 | 0.10 | 0.10 | 84 | 1004.5 |
| 20260505164442 | 61 | 280 | 7.8 | 9.6 | 0.00 | 0.09 | 0.09 | 82 | 1004.6 |
| 20260505163940 | 61 | 277 | 6.1 | 8.7 | 0.07 | 0.09 | 0.09 | 83 | 1004.3 |
| 20260505163439 | 61 | 267 | 7.8 | 9.6 | 0.07 | 0.09 | 0.09 | 82 | 1004.4 |
| 20260505162938 | 63 | 296 | 5.2 | 7.8 | 0.00 | 0.08 | 0.08 | 80 | 1004.3 |
| 20260505162433 | 66 | 279 | 8.7 | 9.6 | 0.00 | 0.08 | 0.08 | 73 | 1003.9 |
| 20260505161930 | 66 | 258 | 2.6 | 2.6 | 0.00 | 0.08 | 0.08 | 72 | 1003.5 |
| 20260505161427 | 67 | 242 | 1.7 | 1.7 | 0.00 | 0.08 | 0.08 | 72 | 1003.3 |
| 20260505160924 | 67 | 227 | 4.3 | 6.1 | 0.00 | 0.08 | 0.08 | 71 | 1003.3 |
| 20260505160422 | 68 | 277 | 2.6 | 5.2 | 0.00 | 0.08 | 0.08 | 69 | 1003.5 |
| 20260505152858 | 69 | 248 | 1.7 | 1.7 | 0.00 | 0.08 | 0.08 | 65 | 1003.5 |
| 20260505152350 | 69 | 258 | 3.5 | 6.1 | 0.00 | 0.08 | 0.08 | 65 | 1003.3 |
| 20260505151849 | 69 | 284 | 4.3 | 6.1 | 0.00 | 0.08 | 0.08 | 65 | 1003.4 |
| 20260505151346 | 69 | 248 | 2.6 | 4.3 | 0.00 | 0.08 | 0.08 | 66 | 1003.3 |
| 20260505150843 | 69 | 175 | 2.6 | 5.2 | 0.00 | 0.08 | 0.08 | 67 | 1003.4 |
| 20260505150341 | 69 | 178 | 2.6 | 4.3 | 0.00 | 0.08 | 0.08 | 68 | 1003.3 |
| 20260505140305 | 71 | 253 | 6.1 | 7.0 | 0.00 | 0.08 | 0.08 | 62 | 1002.7 |
| 20260505130228 | 68 | 307 | 3.5 | 4.3 | 0.00 | 0.08 | 0.08 | 66 | 1002.6 |
| 20260505124719 | 68 | 214 | 3.5 | 5.2 | 0.00 | 0.08 | 0.08 | 66 | 1002.4 |
| 20260505124216 | 68 | 269 | 3.5 | 4.3 | 0.00 | 0.08 | 0.08 | 67 | 1002.7 |
| 20260505123711 | 67 | 260 | 1.7 | 1.7 | 0.00 | 0.08 | 0.08 | 68 | 1002.5 |
| 20260505123209 | 67 | 266 | 4.3 | 7.8 | 0.00 | 0.08 | 0.08 | 67 | 1002.6 |
| 20260505122705 | 67 | 225 | 3.5 | 4.3 | 0.00 | 0.08 | 0.08 | 67 | 1002.6 |
| 20260505122202 | 67 | 236 | 2.6 | 4.3 | 0.00 | 0.08 | 0.08 | 67 | 1002.6 |
| 20260505121659 | 67 | 206 | 2.6 | 5.2 | 0.00 | 0.08 | 0.08 | 68 | 1002.6 |
| 20260505121155 | 66 | 225 | 5.2 | 7.0 | 0.00 | 0.08 | 0.08 | 70 | 1002.8 |
| 20260505120651 | 65 | 228 | 5.2 | 7.0 | 0.00 | 0.08 | 0.08 | 70 | 1002.6 |
| 20260505120147 | 64 | 221 | 4.3 | 6.1 | 0.00 | 0.08 | 0.08 | 71 | 1002.9 |
| 20260505115641 | 64 | 244 | 1.7 | 1.7 | 0.00 | 0.08 | 0.08 | 73 | 1002.6 |
| 20260505115139 | 64 | 248 | 3.5 | 5.2 | 0.00 | 0.08 | 0.08 | 72 | 1002.7 |
| 20260505114636 | 64 | 229 | 7.0 | 7.8 | 0.00 | 0.08 | 0.08 | 72 | 1002.7 |
| 20260505114132 | 64 | 277 | 2.6 | 4.3 | 0.00 | 0.08 | 0.08 | 73 | 1002.5 |
| 20260505113629 | 64 | 179 | 4.3 | 5.2 | 0.00 | 0.08 | 0.08 | 72 | 1002.6 |
| 20260505113126 | 64 | 220 | 2.6 | 4.3 | 0.00 | 0.08 | 0.08 | 72 | 1002.4 |
| 20260505112622 | 64 | 225 | 0.9 | 1.7 | 0.00 | 0.08 | 0.08 | 73 | 1002.4 |
| 20260505112120 | 64 | 287 | 3.5 | 5.2 | 0.00 | 0.08 | 0.08 | 73 | 1002.4 |
| 20260505111614 | 64 | 256 | 3.5 | 5.2 | 0.00 | 0.08 | 0.08 | 74 | 1002.4 |
| 20260505111110 | 63 | 179 | 2.6 | 4.3 | 0.00 | 0.08 | 0.08 | 74 | 1002.2 |
| 20260505110607 | 63 | 212 | 6.1 | 8.7 | 0.00 | 0.08 | 0.08 | 76 | 1002.1 |
| 20260505110104 | 62 | 244 | 2.6 | 6.1 | 0.00 | 0.08 | 0.08 | 77 | 1002.3 |
| 20260505102039 | 59 | 228 | 0.9 | 0.9 | 0.00 | 0.08 | 0.08 | 87 | 1002.1 |
| 20260505101537 | 59 | 232 | 1.7 | 1.7 | 0.00 | 0.08 | 0.08 | 87 | 1001.9 |
| 20260505101033 | 59 | 252 | 0.0 | 0.0 | 0.00 | 0.08 | 0.08 | 86 | 1002.1 |
| 20260505100531 | 59 | 258 | 1.7 | 2.6 | 0.12 | 0.08 | 0.08 | 86 | 1002.3 |
| 20260505100027 | 59 | 216 | 1.7 | 1.7 | 0.24 | 0.08 | 0.08 | 85 | 1002.9 |
| 20260505095524 | 59 | 224 | 0.9 | 1.7 | 0.05 | 0.05 | 0.05 | 84 | 1002.5 |
| 20260505095020 | 59 | 256 | 0.9 | 0.9 | 0.00 | 0.04 | 0.04 | 84 | 1002.7 |
| 20260505094517 | 59 | 205 | 0.9 | 1.7 | 0.00 | 0.04 | 0.04 | 85 | 1002.5 |
| 20260505094013 | 59 | 271 | 0.0 | 0.0 | 0.00 | 0.04 | 0.04 | 85 | 1002.7 |
| 20260505093509 | 59 | 294 | 0.0 | 0.9 | 0.00 | 0.04 | 0.04 | 84 | 1002.7 |
| 20260505093007 | 59 | 299 | 0.0 | 0.9 | 0.00 | 0.04 | 0.04 | 83 | 1002.8 |
| 20260505092504 | 60 | 250 | 0.9 | 0.9 | 0.00 | 0.04 | 0.04 | 83 | 1002.7 |
| 20260505092002 | 60 | 233 | 2.6 | 4.3 | 0.07 | 0.04 | 0.04 | 82 | 1003.0 |
| 20260505091459 | 60 | 269 | 0.9 | 0.9 | 0.19 | 0.04 | 0.04 | 81 | 1002.9 |
| 20260505090957 | 61 | 239 | 0.9 | 1.7 | 0.12 | 0.02 | 0.02 | 79 | 1003.0 |
| 20260505090455 | 63 | 236 | 2.6 | 4.3 | 0.00 | 0.00 | 0.00 | 73 | 1002.5 |
| 20260505085952 | 64 | 227 | 1.7 | 1.7 | 0.00 | 0.00 | 0.00 | 70 | 1002.5 |
| 20260505085450 | 64 | 215 | 6.1 | 7.8 | 0.00 | 0.00 | 0.00 | 68 | 1002.7 |
| 20260505084948 | 64 | 192 | 1.7 | 1.7 | 0.00 | 0.00 | 0.00 | 68 | 1002.5 |
| 20260505084446 | 64 | 21 | 2.6 | 2.6 | 0.00 | 0.00 | 0.00 | 69 | 1002.9 |
| 20260505083943 | 64 | 207 | 5.2 | 7.0 | 0.00 | 0.00 | 0.00 | 69 | 1002.9 |
| 20260505083440 | 64 | 226 | 2.6 | 4.3 | 0.00 | 0.00 | 0.00 | 67 | 1002.9 |
| 20260505082937 | 65 | 220 | 6.1 | 9.6 | 0.00 | 0.00 | 0.00 | 64 | 1002.8 |
| 20260505082432 | 65 | 246 | 5.2 | 7.8 | 0.00 | 0.00 | 0.00 | 63 | 1002.7 |
| 20260505081930 | 65 | 231 | 4.3 | 6.1 | 0.00 | 0.00 | 0.00 | 63 | 1002.6 |
| 20260505081427 | 65 | 237 | 0.9 | 1.7 | 0.00 | 0.00 | 0.00 | 64 | 1002.8 |
| 20260505080923 | 65 | 235 | 3.5 | 7.0 | 0.00 | 0.00 | 0.00 | 63 | 1002.8 |
| 20260505080419 | 65 | 225 | 2.6 | 4.3 | 0.00 | 0.00 | 0.00 | 62 | 1003.0 |
| 20260505075915 | 64 | 214 | 5.2 | 7.0 | 0.00 | 0.00 | 0.00 | 63 | 1002.9 |
| 20260505075412 | 64 | 256 | 0.9 | 0.9 | 0.00 | 0.00 | 0.00 | 63 | 1002.9 |
| 20260505074909 | 64 | 243 | 2.6 | 2.6 | 0.00 | 0.00 | 0.00 | 62 | 1003.0 |
| 20260505074406 | 64 | 269 | 2.6 | 2.6 | 0.00 | 0.00 | 0.00 | 63 | 1003.1 |
| 20260505073903 | 64 | 262 | 2.6 | 4.3 | 0.00 | 0.00 | 0.00 | 62 | 1003.1 |
| 20260505073401 | 64 | 269 | 0.9 | 1.7 | 0.00 | 0.00 | 0.00 | 62 | 1002.9 |
| 20260505072858 | 64 | 220 | 1.7 | 1.7 | 0.00 | 0.00 | 0.00 | 61 | 1003.1 |
| 20260505072354 | 64 | 242 | 5.2 | 7.0 | 0.00 | 0.00 | 0.00 | 61 | 1003.0 |
| 20260505071850 | 64 | 249 | 1.7 | 1.7 | 0.00 | 0.00 | 0.00 | 59 | 1002.8 |
| 20260505071347 | 65 | 270 | 1.7 | 1.7 | 0.00 | 0.00 | 0.00 | 59 | 1003.0 |
| 20260505070845 | 65 | 281 | 6.1 | 8.7 | 0.00 | 0.00 | 0.00 | 58 | 1003.0 |
| 20260505070341 | 65 | 260 | 1.7 | 1.7 | 0.00 | 0.00 | 0.00 | 57 | 1002.5 |
| 20260505065836 | 65 | 228 | 2.6 | 2.6 | 0.00 | 0.00 | 0.00 | 58 | 1002.9 |
| 20260505065334 | 64 | 98 | 2.6 | 4.3 | 0.00 | 0.00 | 0.00 | 58 | 1002.7 |
| 20260505064831 | 64 | 278 | 1.7 | 1.7 | 0.00 | 0.00 | 0.00 | 57 | 1002.7 |
| 20260505064327 | 64 | 260 | 2.6 | 2.6 | 0.00 | 0.00 | 0.00 | 58 | 1002.4 |
| 20260505063826 | 65 | 275 | 2.6 | 5.2 | 0.00 | 0.00 | 0.00 | 56 | 1002.4 |
| 20260505063321 | 64 | 178 | 2.6 | 2.6 | 0.00 | 0.00 | 0.00 | 57 | 1002.6 |
| 20260505062818 | 64 | 187 | 2.6 | 2.6 | 0.00 | 0.00 | 0.00 | 57 | 1002.5 |
| 20260505062316 | 64 | 189 | 2.6 | 4.3 | 0.00 | 0.00 | 0.00 | 57 | 1002.6 |
| 20260505061812 | 63 | 223 | 3.5 | 5.2 | 0.00 | 0.00 | 0.00 | 57 | 1002.6 |
| 20260505061311 | 64 | 150 | 0.9 | 1.7 | 0.00 | 0.00 | 0.00 | 57 | 1002.5 |
| 20260505060807 | 63 | 254 | 2.6 | 5.2 | 0.00 | 0.00 | 0.00 | 57 | 1002.6 |
| 20260505060056 | 62 | 286 | 0.0 | 0.9 | 0.00 | 0.00 | 0.00 | 61 | 1002.6 |
| 20260505055551 | 62 | 286 | 0.0 | 0.9 | 0.00 | 0.00 | 0.00 | 61 | 1002.6 |
| 20260505055048 | 61 | 215 | 2.6 | 2.6 | 0.00 | 0.00 | 0.00 | 61 | 1003.0 |
| 20260505054545 | 60 | 264 | 0.9 | 1.7 | 0.00 | 0.00 | 0.00 | 62 | 1003.1 |
| 20260505054043 | 59 | 267 | 0.0 | 0.0 | 0.00 | 0.00 | 0.00 | 63 | 1003.0 |
| 20260505053540 | 59 | 268 | 0.0 | 0.0 | 0.00 | 0.00 | 0.00 | 64 | 1003.1 |
| 20260505053037 | 58 | 211 | 1.7 | 1.7 | 0.00 | 0.00 | 0.00 | 65 | 1003.1 |
| 20260505052534 | 58 | 273 | 0.0 | 0.0 | 0.00 | 0.00 | 0.00 | 67 | 1003.2 |
| 20260505052031 | 56 | 265 | 0.9 | 1.7 | 0.00 | 0.00 | 0.00 | 68 | 1003.2 |
| 20260505051528 | 54 | 266 | 0.0 | 0.0 | 0.00 | 0.00 | 0.00 | 73 | 1003.1 |
| 20260505051026 | 52 | 278 | 0.0 | 0.0 | 0.00 | 0.00 | 0.00 | 74 | 1003.3 |
| 20260505050524 | 52 | 235 | 0.0 | 0.0 | 0.00 | 0.00 | 0.00 | 75 | 1003.1 |
| 20260505041451 | 53 | 244 | 0.0 | 0.9 | 0.00 | 0.00 | 0.00 | 74 | 1003.3 |
| 20260505040949 | 53 | 261 | 0.0 | 0.0 | 0.00 | 0.00 | 0.00 | 73 | 1003.4 |
| 20260505040446 | 53 | 283 | 0.0 | 0.0 | 0.00 | 0.00 | 0.00 | 72 | 1003.3 |
| 20260505035943 | 54 | 272 | 0.0 | 0.0 | 0.00 | 0.08 | 0.08 | 71 | 1003.4 |
| 20260505035439 | 54 | 273 | 0.0 | 0.0 | 0.00 | 0.08 | 0.08 | 70 | 1003.3 |
| 20260505034936 | 55 | 262 | 0.0 | 0.0 | 0.00 | 0.08 | 0.08 | 71 | 1003.2 |
| 20260505034433 | 55 | 266 | 0.0 | 0.0 | 0.00 | 0.08 | 0.08 | 70 | 1003.1 |
| 20260505033930 | 55 | 246 | 0.0 | 0.9 | 0.00 | 0.08 | 0.08 | 71 | 1003.2 |
| 20260505033426 | 55 | 256 | 0.0 | 0.0 | 0.00 | 0.08 | 0.08 | 72 | 1003.3 |
| 20260505032925 | 55 | 262 | 0.0 | 0.0 | 0.00 | 0.08 | 0.08 | 73 | 1003.4 |
| 20260505032422 | 54 | 229 | 0.0 | 0.0 | 0.00 | 0.08 | 0.08 | 74 | 1003.3 |
| 20260505031918 | 54 | 264 | 0.0 | 0.0 | 0.00 | 0.08 | 0.08 | 75 | 1003.3 |
| 20260505031415 | 53 | 252 | 0.0 | 0.0 | 0.00 | 0.08 | 0.08 | 77 | 1003.5 |
| 20260505030912 | 53 | 267 | 0.0 | 0.0 | 0.00 | 0.08 | 0.08 | 80 | 1003.2 |
| 20260505030408 | 51 | 227 | 0.9 | 0.9 | 0.00 | 0.08 | 0.08 | 83 | 1003.6 |
| 20260505025903 | 51 | 253 | 0.0 | 0.0 | 0.00 | 0.08 | 0.08 | 83 | 1003.5 |
| 20260505025401 | 51 | 263 | 0.0 | 0.0 | 0.00 | 0.08 | 0.08 | 82 | 1003.7 |
| 20260505024900 | 51 | 254 | 0.0 | 0.0 | 0.00 | 0.08 | 0.08 | 83 | 1003.7 |
| 20260505024357 | 51 | 266 | 0.0 | 0.0 | 0.00 | 0.08 | 0.08 | 82 | 1003.6 |
| 20260505023854 | 51 | 251 | 0.0 | 0.0 | 0.00 | 0.08 | 0.08 | 82 | 1003.7 |
| 20260505023351 | 52 | 243 | 0.0 | 0.9 | 0.00 | 0.08 | 0.08 | 81 | 1003.9 |
| 20260505022848 | 52 | 253 | 0.0 | 0.0 | 0.00 | 0.08 | 0.08 | 81 | 1003.7 |
| 20260505022345 | 52 | 262 | 0.0 | 0.0 | 0.00 | 0.08 | 0.08 | 81 | 1003.8 |
| 20260505021843 | 52 | 256 | 0.0 | 0.0 | 0.00 | 0.08 | 0.08 | 81 | 1003.9 |
| 20260505021339 | 53 | 249 | 0.0 | 0.0 | 0.00 | 0.08 | 0.08 | 80 | 1003.9 |
| 20260505020835 | 53 | 241 | 0.0 | 0.9 | 0.00 | 0.08 | 0.08 | 80 | 1004.1 |
| 20260505020330 | 53 | 253 | 0.0 | 0.0 | 0.00 | 0.08 | 0.08 | 80 | 1004.2 |
| 20260505015827 | 53 | 302 | 0.0 | 0.0 | 0.00 | 0.08 | 0.08 | 78 | 1003.9 |
| 20260505015324 | 53 | 238 | 0.9 | 0.9 | 0.00 | 0.08 | 0.08 | 77 | 1004.1 |
| 20260505014822 | 54 | 253 | 0.0 | 0.0 | 0.00 | 0.08 | 0.08 | 76 | 1004.2 |
| 20260505014318 | 54 | 284 | 0.0 | 0.0 | 0.00 | 0.08 | 0.08 | 75 | 1004.3 |
| 20260505013815 | 55 | 277 | 0.0 | 0.0 | 0.00 | 0.08 | 0.08 | 75 | 1004.0 |
| 20260505013312 | 55 | 253 | 0.0 | 0.0 | 0.00 | 0.08 | 0.08 | 73 | 1004.1 |
| 20260505012811 | 55 | 245 | 0.0 | 0.9 | 0.00 | 0.08 | 0.08 | 72 | 1004.1 |
| 20260505012308 | 56 | 262 | 0.0 | 0.0 | 0.00 | 0.08 | 0.08 | 71 | 1004.2 |
| 20260505011804 | 56 | 226 | 0.9 | 0.9 | 0.00 | 0.08 | 0.08 | 69 | 1004.3 |
| 20260505011301 | 57 | 276 | 0.0 | 0.0 | 0.00 | 0.08 | 0.08 | 68 | 1004.0 |
| 20260505010757 | 57 | 271 | 0.0 | 0.0 | 0.00 | 0.08 | 0.08 | 68 | 1004.1 |
| 20260505010253 | 57 | 270 | 0.0 | 0.0 | 0.00 | 0.08 | 0.08 | 66 | 1004.2 |
| 20260505005749 | 58 | 256 | 0.0 | 0.0 | 0.00 | 0.08 | 0.08 | 65 | 1004.0 |
| 20260505005247 | 59 | 255 | 0.0 | 0.0 | 0.00 | 0.08 | 0.08 | 64 | 1004.2 |
| 20260505004744 | 59 | 260 | 0.0 | 0.0 | 0.00 | 0.08 | 0.08 | 64 | 1004.0 |
| 20260505004239 | 60 | 270 | 0.0 | 0.0 | 0.00 | 0.08 | 0.08 | 61 | 1003.9 |
| 20260505003737 | 60 | 270 | 0.0 | 0.0 | 0.00 | 0.08 | 0.08 | 61 | 1003.8 |
| 20260505003235 | 60 | 269 | 0.0 | 0.0 | 0.00 | 0.08 | 0.08 | 61 | 1003.7 |
| 20260505002731 | 61 | 266 | 0.0 | 0.0 | 0.00 | 0.08 | 0.08 | 59 | 1003.9 |
| 20260505002228 | 61 | 270 | 0.0 | 0.0 | 0.00 | 0.08 | 0.08 | 59 | 1003.8 |
| 20260505001726 | 62 | 266 | 0.0 | 0.0 | 0.00 | 0.08 | 0.08 | 59 | 1003.8 |
| 20260505001223 | 62 | 267 | 0.0 | 0.0 | 0.00 | 0.08 | 0.08 | 58 | 1003.8 |
| 20260505000720 | 63 | 270 | 0.0 | 0.0 | 0.00 | 0.08 | 0.08 | 58 | 1003.9 |
| 20260505000219 | 64 | 263 | 0.0 | 0.0 | 0.00 | 0.08 | 0.08 | 57 | 1003.7 |
| 20260504235714 | 64 | 286 | 0.0 | 0.0 | 0.00 | 0.08 | 0.08 | 56 | 1003.6 |
| 20260504235210 | 65 | 264 | 0.0 | 0.0 | 0.00 | 0.08 | 0.08 | 55 | 1003.6 |
| 20260504234708 | 66 | 266 | 0.0 | 0.0 | 0.00 | 0.08 | 0.08 | 53 | 1003.6 |
| 20260504234205 | 66 | 258 | 0.0 | 0.0 | 0.00 | 0.08 | 0.08 | 53 | 1003.4 |
| 20260504233701 | 66 | 280 | 0.9 | 0.9 | 0.00 | 0.08 | 0.08 | 51 | 1003.6 |
| 20260504233157 | 67 | 279 | 0.0 | 0.9 | 0.00 | 0.08 | 0.08 | 52 | 1003.7 |
| 20260504232654 | 67 | 263 | 0.0 | 0.0 | 0.00 | 0.08 | 0.08 | 52 | 1003.7 |
| 20260504232151 | 68 | 267 | 0.0 | 0.0 | 0.00 | 0.08 | 0.08 | 51 | 1003.6 |
| 20260504231648 | 68 | 267 | 0.9 | 1.7 | 0.00 | 0.08 | 0.08 | 51 | 1003.6 |
| 20260504231144 | 68 | 286 | 0.9 | 1.7 | 0.00 | 0.08 | 0.08 | 50 | 1003.7 |
| 20260504230640 | 68 | 294 | 0.9 | 0.9 | 0.00 | 0.08 | 0.08 | 49 | 1003.8 |
| 20260504230140 | 68 | 286 | 3.5 | 5.2 | 0.00 | 0.08 | 0.08 | 49 | 1003.8 |
| 20260504225637 | 68 | 264 | 0.9 | 0.9 | 0.00 | 0.08 | 0.08 | 48 | 1003.8 |
| 20260504225133 | 69 | 265 | 1.7 | 1.7 | 0.00 | 0.08 | 0.08 | 48 | 1004.0 |
| 20260504224630 | 69 | 258 | 5.2 | 7.8 | 0.00 | 0.08 | 0.08 | 46 | 1003.8 |
| 20260504224127 | 70 | 261 | 2.6 | 2.6 | 0.00 | 0.08 | 0.08 | 46 | 1003.7 |
| 20260504223624 | 71 | 267 | 0.9 | 1.7 | 0.00 | 0.08 | 0.08 | 46 | 1003.7 |
| 20260504223120 | 71 | 264 | 0.9 | 0.9 | 0.00 | 0.08 | 0.08 | 47 | 1003.9 |
| 20260504222617 | 71 | 251 | 0.9 | 0.9 | 0.00 | 0.08 | 0.08 | 47 | 1004.0 |
| 20260504222114 | 71 | 323 | 2.6 | 4.3 | 0.00 | 0.08 | 0.08 | 47 | 1003.9 |
| 20260504221611 | 70 | 236 | 1.7 | 2.6 | 0.00 | 0.08 | 0.08 | 47 | 1004.1 |
| 20260504221108 | 70 | 250 | 4.3 | 6.1 | 0.00 | 0.08 | 0.08 | 46 | 1004.0 |
| 20260504220604 | 70 | 200 | 1.7 | 2.6 | 0.00 | 0.08 | 0.08 | 46 | 1003.9 |
| 20260504215558 | 71 | 261 | 1.7 | 2.6 | 0.00 | 0.08 | 0.08 | 46 | 1004.0 |
| 20260504215055 | 71 | 265 | 0.9 | 0.9 | 0.00 | 0.08 | 0.08 | 47 | 1004.0 |
| 20260504214551 | 70 | 258 | 6.1 | 7.0 | 0.00 | 0.08 | 0.08 | 46 | 1004.2 |
| 20260504214048 | 70 | 258 | 6.1 | 7.8 | 0.00 | 0.08 | 0.08 | 45 | 1004.2 |
| 20260504213544 | 71 | 252 | 1.7 | 1.7 | 0.00 | 0.08 | 0.08 | 47 | 1004.2 |
| 20260504213042 | 71 | 261 | 7.8 | 8.7 | 0.00 | 0.08 | 0.08 | 45 | 1004.3 |
| 20260504212537 | 71 | 279 | 1.7 | 2.6 | 0.00 | 0.08 | 0.08 | 48 | 1004.3 |
| 20260504212035 | 71 | 271 | 5.2 | 5.2 | 0.00 | 0.08 | 0.08 | 46 | 1004.2 |
| 20260504211532 | 70 | 251 | 2.6 | 2.6 | 0.00 | 0.08 | 0.08 | 46 | 1004.1 |
| 20260504211029 | 71 | 250 | 4.3 | 5.2 | 0.00 | 0.08 | 0.08 | 46 | 1004.3 |
| 20260504210526 | 71 | 288 | 10.4 | 12.2 | 0.00 | 0.08 | 0.08 | 45 | 1004.2 |
| 20260504210022 | 71 | 229 | 3.5 | 6.1 | 0.00 | 0.08 | 0.08 | 46 | 1004.3 |
| 20260504205520 | 70 | 324 | 5.2 | 6.1 | 0.00 | 0.08 | 0.08 | 46 | 1004.3 |
| 20260504205018 | 71 | 264 | 6.1 | 9.6 | 0.00 | 0.08 | 0.08 | 46 | 1004.4 |
| 20260504204516 | 71 | 251 | 3.5 | 6.1 | 0.00 | 0.08 | 0.08 | 47 | 1004.4 |
| 20260504204015 | 71 | 269 | 6.1 | 7.0 | 0.00 | 0.08 | 0.08 | 47 | 1004.4 |
| 20260504203512 | 71 | 271 | 9.6 | 12.2 | 0.00 | 0.08 | 0.08 | 46 | 1004.5 |
| 20260504203009 | 71 | 273 | 7.0 | 11.3 | 0.00 | 0.08 | 0.08 | 47 | 1004.4 |
| 20260504202504 | 71 | 289 | 3.5 | 4.3 | 0.00 | 0.08 | 0.08 | 48 | 1004.4 |
| 20260504202001 | 71 | 240 | 2.6 | 4.3 | 0.00 | 0.08 | 0.08 | 47 | 1004.6 |
| 20260504201459 | 71 | 261 | 10.4 | 13.0 | 0.00 | 0.08 | 0.08 | 46 | 1004.4 |
| 20260504200956 | 71 | 236 | 3.5 | 4.3 | 0.00 | 0.08 | 0.08 | 48 | 1004.6 |
| 20260504200453 | 71 | 242 | 4.3 | 6.1 | 0.00 | 0.08 | 0.08 | 48 | 1004.8 |
| 20260504195949 | 70 | 252 | 4.3 | 7.0 | 0.00 | 0.08 | 0.08 | 48 | 1004.8 |
| 20260504195445 | 70 | 272 | 7.0 | 12.2 | 0.00 | 0.08 | 0.08 | 48 | 1004.6 |
| 20260504194942 | 70 | 245 | 3.5 | 5.2 | 0.00 | 0.08 | 0.08 | 48 | 1004.7 |
| 20260504194438 | 70 | 244 | 2.6 | 5.2 | 0.00 | 0.08 | 0.08 | 48 | 1004.7 |
| 20260504193934 | 70 | 258 | 2.6 | 2.6 | 0.00 | 0.08 | 0.08 | 50 | 1004.9 |
| 20260504193432 | 69 | 276 | 2.6 | 4.3 | 0.00 | 0.08 | 0.08 | 49 | 1005.2 |
| 20260504192931 | 69 | 172 | 4.3 | 7.0 | 0.00 | 0.08 | 0.08 | 49 | 1005.0 |
| 20260504192427 | 70 | 339 | 1.7 | 1.7 | 0.00 | 0.08 | 0.08 | 50 | 1005.1 |
| 20260504191926 | 69 | 268 | 3.5 | 5.2 | 0.00 | 0.08 | 0.08 | 51 | 1005.2 |
| 20260504191424 | 68 | 207 | 6.1 | 7.0 | 0.00 | 0.08 | 0.08 | 50 | 1005.2 |
| 20260504190919 | 69 | 256 | 4.3 | 5.2 | 0.00 | 0.08 | 0.08 | 49 | 1005.4 |
| 20260504190415 | 68 | 197 | 1.7 | 1.7 | 0.00 | 0.08 | 0.08 | 52 | 1005.3 |
| 20260504185912 | 68 | 259 | 2.6 | 4.3 | 0.00 | 0.08 | 0.08 | 51 | 1005.2 |
| 20260504185409 | 68 | 302 | 7.0 | 8.7 | 0.00 | 0.08 | 0.08 | 49 | 1005.2 |
| 20260504184905 | 68 | 13 | 7.0 | 9.6 | 0.00 | 0.08 | 0.08 | 50 | 1005.3 |
| 20260504184401 | 68 | 274 | 2.6 | 2.6 | 0.00 | 0.08 | 0.08 | 50 | 1005.4 |
| 20260504183857 | 68 | 278 | 1.7 | 2.6 | 0.00 | 0.08 | 0.08 | 52 | 1005.3 |
| 20260504183354 | 68 | 263 | 4.3 | 5.2 | 0.00 | 0.08 | 0.08 | 51 | 1005.4 |
| 20260504182852 | 68 | 152 | 4.3 | 6.1 | 0.00 | 0.08 | 0.08 | 50 | 1005.5 |
| 20260504182349 | 67 | 232 | 2.6 | 4.3 | 0.00 | 0.08 | 0.08 | 52 | 1005.4 |
| 20260504181845 | 66 | 250 | 2.6 | 2.6 | 0.00 | 0.08 | 0.08 | 52 | 1005.4 |
| 20260504181343 | 67 | 277 | 9.6 | 13.0 | 0.00 | 0.08 | 0.08 | 51 | 1005.7 |
| 20260504180842 | 67 | 311 | 3.5 | 4.3 | 0.00 | 0.08 | 0.08 | 52 | 1005.7 |